Regional Weather Roundup
Issued by NWS Grand Forks, ND

Home | Current Version | Previous Version | Text Only | Print | Product List | Glossary On
Versions: 1 2 3 4 5 6 7 8 9 10 11 12 13 14 15 16 17 18 19 20 21 22 23 24 25 26 27 28 29 30 31 32 33 34 35 36 37 38 39 40 41 42 43 44 45 46 47 48 49 50
000
ASUS43 KFGF 221031
RWRFGF
PRAIRIE TO PINES  WEATHER ROUNDUP
NATIONAL WEATHER SERVICE EASTERN NORTH DAKOTA/GRAND FORKS ND
500 AM CDT FRI MAY 22 2015

 **SATELLITE DATA USED TO AUGMENT SKY COVER AT AUTOMATED STATIONS**
 *****  WEATHER ACROSS EASTERN NORTH DAKOTA  *****

CITY           SKY/WX    TMP DP  RH WIND       PRES   REMARKS
GRAND FORKS    CLEAR     39  36  89 SW3       30.15S
GRAND FRKS AFB CLEAR     42  37  84 SW3       30.15S
GRAND FRKS NWS   N/A     37 N/A N/A MISG        N/A
DEVILS LAKE    CLEAR     46  36  66 S3        30.15S
FARGO          CLEAR     42  39  89 CALM      30.16S
WAHPETON ARPT  SUNNY     41  34  75 CALM      30.17R
$$

 ***** WEATHER ACROSS CENTRAL AND WESTERN NORTH DAKOTA  *****

CITY           SKY/WX    TMP DP  RH WIND       PRES   REMARKS
BISMARCK       CLEAR     43  39  86 NE5       30.15S
MINOT          CLEAR     50  34  54 S3        30.13R
JAMESTOWN      CLEAR     46  40  79 CALM      30.15S
MINOT AFB      CLEAR     44  40  85 S5        30.12S
GARRISON         N/A     43  37  79 NE3       30.14S
WILLISTON      CLEAR     42  36  79 CALM      30.11S
DICKINSON      CLEAR     40  32  73 E7        30.11S
HETTINGER      CLEAR     35  31  85 CALM      30.14S
$$

 *****  OTHER AIRPORT OBSERVATIONS IN OUR AREA  *****

CITY           SKY/WX    TMP DP  RH WIND       PRES   REMARKS
WALHALLA       FAIR      48  34  57 SW5       30.13S
GRAFTON AIRPOR FAIR      45  43  93 SW7       30.16R
VALLEY CITY AR FAIR      41  41 100 CALM      30.17R
CANDO          FAIR      39  37  93 CALM      30.15S
CAVALIER APRT  FAIR      45  39  81 S6        30.14S
GWINNER        NOT AVBL
SHEYENNE NWR     N/A     38  36  91 CALM      29.95S
ROLLA          FAIR      46  32  57 SW10      30.15S
 ***** THE ABOVE OBSERVATIONS ARE NON NWS ARE NOT QUALITY
       CONTROLLED AND MAY MIS-REPORT RAIN FOR SNOW...
$$

  *****  WEATHER ACROSS NORTHERN MINNESOTA  *****

CITY           SKY/WX    TMP DP  RH WIND       PRES   REMARKS
FLAG ISLAND    CLEAR     46  43  87 CALM      30.14R
WARROAD        CLEAR     37  34  87 CALM      30.16R
ROSEAU         CLEAR     39  34  81 CALM      30.16R
HALLOCK        CLEAR     43  37  81 SE8       30.15R
THF RVR FALLS  CLEAR     41  34  75 CALM      30.17R
BAUDETTE       CLEAR     37  34  89 CALM      30.15R
WASKISH        CLEAR     37  36  93 CALM      30.17R
CROOKSTON      CLEAR     43  36  75 CALM      30.18R
STEPHEN NDAWN    N/A     39  36  87 SE5         N/A
GREENBUSH NDAW   N/A     39  37  93 SE3         N/A
$$
  *****  WEATHER ACROSS CENTRAL AND WEST MINNESOTA  *****

CITY           SKY/WX    TMP DP  RH WIND       PRES   REMARKS
FOSSTON        CLEAR     34  28  80 CALM      30.18R
BEMIDJI        CLEAR     33  31  93 CALM      30.16R
PARK RAPIDS    CLEAR     39  35  86 CALM      30.16R
ELBOW LAKE     FAIR      46  42  86 CALM      30.16S
WADENA         CLEAR     37  36  93 CALM      30.16S
DETROIT LAKES  CLEAR     45  41  87 CALM      30.18R
MOORHEAD       CLEAR     45  39  81 CALM      30.17S
FERGUS FALLS   CLEAR     46  37  71 CALM      30.18R
MORRIS MN      CLEAR     45  39  81 NW5       30.16S
STAPLES        CLEAR     37  36  93 CALM      30.17S
$$
  *****  WEATHER ELSEWHERE ACROSS MINNESOTA  *****

CITY           SKY/WX    TMP DP  RH WIND       PRES   REMARKS
DULUTH         CLEAR     37  31  78 CALM      30.16R
INTRNTL FALLS  CLEAR     30  29  96 CALM      30.15R
ELY            CLEAR     28  27  93 CALM      30.16R
CLOQUET        CLEAR     34  28  80 N6        30.17R
WHEATON        CLEAR     43  37  81 W3        30.19S
BRAINERD       CLEAR     35  34  96 CALM      30.17R
HIBBING        CLEAR     31  29  92 CALM      30.15S
ALEXANDRIA     CLEAR     41  39  93 NE3       30.17R
SAINT CLOUD    CLEAR     38  37  97 CALM      30.16R
MINNEAPOLIS    CLEAR     49  37  63 CALM      30.16R
$$

  *****  WEATHER ACROSS SOUTH DAKOTA  *****

CITY           SKY/WX    TMP DP  RH WIND       PRES   REMARKS
SIOUX FALLS    CLEAR     43  40  89 CALM      30.18R
BROOKINGS      CLEAR     43  37  81 CALM      30.20S
WATERTOWN      CLEAR     44  38  79 CALM      30.18R
HURON          CLEAR     46  41  82 SE3       30.16S
SISSETON         N/A     41  37  86 W3        30.16S
ABERDEEN       CLEAR     44  39  82 N3        30.17R
MITCHELL       CLEAR     44  40  85 E5        30.17S
PIERRE         CLEAR     41  35  79 E5        30.14R
MOBRIDGE       CLEAR     45  39  79 CALM      30.13S
RAPID CITY     CLOUDY    49  45  86 SE5       30.10S
$$

  *****  SOME WEATHER IN NEARBY STATES *****

CITY           SKY/WX    TMP DP  RH WIND       PRES   REMARKS
GLASGOW MT     CLEAR     47  33  58 E13       30.06R
GREAT FALLS MT CLEAR     45  40  82 CALM      29.95S
CHEYENNE WY    LGT RAIN  43  42  97 SE13G22   30.04F FOG
SCOTTSBLUFF NE CLOUDY    49  45  86 E7        30.08F
OMAHA NE       PTCLDY    52  44  74 CALM      30.20R
DES MOINES IA  CLEAR     52  41  66 NW6       30.17S
DAVENPORT IA   CLEAR     45  38  76 W7        30.13R
CHICAGO IL     CLEAR     47  39  74 N9        30.10R
EAU CLAIRE WI  CLEAR     39  37  92 NE5       30.14R
LA CROSSE WI   CLEAR     45  40  82 SE3       30.13R
$$

  *****  SOME NATIONAL WEATHER *****

CITY           SKY/WX    TMP DP  RH WIND       PRES   REMARKS
LA GUARDIA NY  PTCLDY    56  44  64 NW12      29.88R
RALEIGH NC     PTCLDY    54  46  74 N6        30.08R
ATLANTA GA     PTCLDY    52  46  80 NW9       30.10R
NEW ORLEANS LA CLOUDY    71  64  78 NE14      30.10R
OKLAHOMA CITY  CLOUDY    56  48  74 E8        30.17R
ALBUQUERQUE NM PTCLDY    49  41  74 NE7       30.08F
SALT LAKE CITY MOCLDY    54  46  74 SW9       29.89S
LOS ANGELES CA MOCLDY    57  53  86 W15       29.98S
BOISE ID       PTCLDY    54  47  77 SE7       29.87R
SEATTLE WA     CLOUDY    54  50  86 S9        29.92R
$$

*** WEATHER ACROSS MANITOBA...SASKATCHEWAN AND ONTARIO ***
                ***ONTARIO***

CITY           SKY/WX    TMP DP  RH WIND       PRES   REMARKS
GERALDTON      CLEAR     21  18  86 CALM      30.16R
THUNDER BAY    CLEAR     27  27 100 W2        30.19R
SIOUX LOOKOUT  CLEAR     27  25  93 CALM      30.15R
TORONTO        PTCLDY    45  36  70 N14       29.96R
BIG TROUT LK   CLEAR     25  23  93 S5        30.14S WCI  19
PICKLE LAKE    NOT AVBL
DRYDEN         CLEAR     36  32  87 CALM      30.14R
KENORA         CLEAR     46  27  46 S6        30.15R
$$
                *** MANITOBA***

CITY           SKY/WX    TMP DP  RH WIND       PRES   REMARKS
BRANDON        PTCLDY    39  36  87 NW8       30.12S
DAUPHIN        CLEAR     55  37  50 SW14      30.06F
ISLAND LAKE    PTCLDY    37  28  70 SE6       30.10S
PILOT MOUND      N/A     41  36  81 S5          N/A
THE PAS        MOCLDY    59  37  44 W13       29.95S
THOMPSON       MOCLDY    41  30  65 S3        29.96F
WINNIPEG       PTCLDY    46  36  66 S8        30.12S
LYNN LAKE      CLOUDY    41  34  75 N5        29.93R
CHURCHILL      PTCLDY    37  28  70 SW15      29.91F
GILLAM         MOCLDY    37  23  56 S9        30.02F
$$
                ***SASKATCHEWAN***

CITY           SKY/WX    TMP DP  RH WIND       PRES   REMARKS
ESTEVAN        PTCLDY    46  37  71 SE5       30.12S
KINDERSLEY     CLEAR     46  28  49 SE10      30.04S
LLOYDMINSTER   CLEAR     46  30  53 S10       30.02R
PRINCE ALBERT  PTCLDY    43  34  70 CALM      30.05R
REGINA         PTCLDY    48  34  57 SE8       30.11S
YORKTON        CLEAR     50  39  66 SW7       30.09S
N. BATTLEFORD  CLEAR     48  32  53 VRB2      30.07R
LA RONGE       PTCLDY    41  36  81 VRB2      29.98S
SASKATOON      CLEAR     48  34  57 S5        30.08S
SWIFT CURRENT  CLEAR     45  30  57 S10       30.07S
$$
NOTE: THESE ARE AUTOMATED STATIONS WITH LIMITED QUALITY CONTROL
      "FAIR" INDICATES FEW OR NO CLOUDS BELOW 12,000 FEET WITH NO
      SIGNIFICANT WEATHER AND/OR OBSTRUCTIONS TO VISIBILITY.
      SKY/WX - SKY CONDITION AND SIGNIFICANT WEATHER.
      TMP - AIR TEMPERATURE.    DP   - DEWPOINT TEMPERATURE.
      RH  - RELATIVE HUMIDITY.  PRES - PRESSURE.
      HX  - HEAT INDEX.         WCI  - WIND CHILL INDEX.
$



USA.gov is the U.S. government's official web portal to all federal, state and local government web resources and services.